STARLINK-32229, 60436

Orbit data source: Space-Track

STARLINK-32229, 60436 is a payload satellite owned by SpaceX/Seattle (US) in LEO that was launched on Mon, 12 Aug 2024 UTC via an FALCON 9 launch vehicle from the Air Force Eastern Test Range (AFETR). Payload-class satellites include a variety of spacecraft equipped with specific instruments for various scientific and technological missions. These include communications satellites like Starlink; space stations such as the ISS; scientific satellites like the Hubble; Earth observation satellites from companies like Planet Labs, Umbra, and HawkEye 360; GPS; miniature CubeSats for education and research; and military/defense satellites.

Loading next visibility...
Identifier
60436, 2024-144M
Orbit
LEO
Country
Flag of USUS
Related business
Manufacturer
SpaceX/Seattle
Mission
Operational Commercial Communications
Bus & Motor
STARLINK V2M, Unknown motor
Mass
730 kg wet, ~700 kg dry
Launch date (UTC)
2024-08-12 (2 years ago)
Launch vehicle
FALCON 9
Launch site
Air Force Eastern Test Range (AFETR)
Object type
Payload
Rocket body
Debris
Shape & HBR
Box + 2 Pan, 17.7 m
Radar Cross Section
33.884 m², Large (>1 m²)

Expand to show TLE details & history
Last TLE update: 21 hours ago

TLE from 21 hours ago
0 STARLINK-32229
1 60436U 24144M   26170.97225380 -.00000190  00000-0  55086-5 0  9996
2 60436  53.1599 100.3007 0001335  81.1575 278.9579 15.34382199104998
Epoch: 2026-06-19T23:20Z
TLE epoch observation values (Epoch: 2026-06-19T23:20:02.728Z)
Latitude
0.00001°
Longitude
-157.90422°
Altitude
463.515 km
Speed
7.636 km/s
True Right ascension
06h 41m 12s
True Declination
0° 00' 00"
Sunlit
Object was in daylight at epoch
Visualization orbit readout
Latitude
Unknown
Longitude
Unknown
Altitude
Unknown
Speed
Unknown
Apparent Right ascension
Unknown
Apparent Declination
Unknown
Sunlit
N/A
Visualization observer readout
Local Sidereal Time
07:12:12
Azimuth
Unknown
Elevation
Unknown
Doppler factor
Unknown
Orbital elements
Apogee altitude
463.926 km
Perigee altitude
462.1 km
Semi-major axis
6,841.15 km
Eccentricity
0.00013
Inclination
53.1599°
RAAN
100.3007°
Arg. of periapsis
81.1575°
True anomaly
278.94279°
Mean anomaly
278.9579°
Eccentric anomaly
278.95034°
Mean motion
3.83574 °/min
Orbital period
93.85 mins
BSTAR
0.0000055086
Loading maneuver chart data...
Computing Atmospheric mass density...
Loading historical data...
Loading historical data...
Loading historical data...
Loading historical data...
Loading historical data...
Loading historical data...
Loading historical data...

Documentation

Showing up to 5 results
|